METAR AND TAF INFORMATION
METAR FOR SKAR
ADDS - METARS form results

(1707 UTC 18 February 2020)
Data provider http://aviationweather.gov/metar/data/
 
METAR text: SKAR 181700Z 23005KT 130V290 9999 FEW025 SCT200 30/20 A2995
Conditions at: SKAR (ARMENIA/EL EDEN , CO) observed 1700 UTC 18 February 2020
Temperature: 30.0°C (86°F)
Dewpoint: 20.0°C (68°F) [RH = 55%]
Pressure (altimeter): 29.95 inches Hg (1014.3 mb)
Winds: from the SW (230 degrees) at 6 MPH (5 knots; 2.6 m/s)
Visibility: 6 or more miles (10+ km)
Ceiling: at least 12,000 feet AGL
Clouds: few clouds at 2500 feet AGL
scattered clouds at 20000 feet AGL
Weather: no significant weather observed at this time

 AIRPORT MAP

 RUNWAY INFORMATION
Runway 02 Runway length 7045 ft Runway width 118 ft
Runway elevation 3968 ft Runway displaced threshold 0 ft Runway heading 13
Runway 20 Runway length 7045 ft Runway width 118 ft
Runway elevation 3979 ft Runway displaced threshold 0 ft Runway heading 193

 AIRPORT FREQUENCIES
Type APP Name PEREIRA AP Frequency 119.9 MHZ
Type RDO Name ARMENIA RD Frequency 348.8 MHZ
Type TWR Name TWR Frequency 118.5 MHZ

 AIRPORT NEAR NAVIGATION AIDS
Type NDB Name Armenia Frequency 315 KHZ



Powered by Virtual Airlines Manager [v2.6.2]